Location: Unspecified
(48.2082°N, 0.0000°E)
Time: 05:58:43
(UTC+00:00)

A-11 Canister half - Pass Details

Date: 19 August 2020
Orbit: 1514 x 1686 km, 47.2° (Epoch: 21 September)

Event Time Altitude Azimuth Distance (km) Brightness Sun altitude
Rises 21:36:30 0° 290° (WNW) 4,814 12.6 -21.2°
Reaches altitude 10° 21:39:49 10° 283° (WNW) 3,850 11.8 -21.5°
Maximum altitude 21:48:39 39° 220° (SW) 2,305 9.7 -22.4°
Enters shadow 21:52:51 28° 177° (S) 2,754 9.8 -22.8°
